Wetbulb
69.08 69.46 66.07 61.80 53.91 54.43 51.11 54.51 59.07 59.46 59.00 63.13 64.40 63.39 62.29 63.84 61.67 54.97 68.89 72.68 72.70 72.39 73.18 73.95 75.40 74.84 74.37 73.81 73.59 74.20 74.90 75.06 74.33 73.61 73.05 71.73 70.83 70.71 70.77 70.93 71.10 70.59 70.25 69.87 69.41 69.16 68.94 68.97 69.24
63.90 64.50 62.26 57.45 48.87 45.05 50.03 56.33 57.58 59.78 63.01 63.83 64.41 64.88 63.69 60.85 66.84 68.56 69.43 72.62 72.78 71.87 71.32 72.67 75.55 74.92 73.91 73.53 74.08 74.60 75.38 74.06 72.63 71.31 70.46 70.27 70.34 70.40 70.33 70.55 70.34 69.92 69.49 69.30 69.25 69.14 69.35 69.22 69.21
66.06 65.74 57.67 51.39 48.55 46.64 48.89 58.47 58.76 61.84 64.67 65.58 64.24 66.27 64.77 63.04 68.34 69.11 72.00 72.40 72.19 70.95 71.04 72.49 75.43 74.72 73.70 74.04 74.48 74.98 73.78 71.93 70.61 70.35 70.29 70.07 70.09 70.09 70.64 69.78 69.43 68.92 68.92 69.16 68.81 68.80 68.63 68.77 68.67
59.95 57.87 56.05 47.18 45.88 52.84 54.22 57.03 61.14 61.54 65.14 65.07 61.78 63.58 67.16 69.89 69.39 71.26 72.54 72.40 71.28 70.60 71.26 74.65 75.13 74.58 73.99 74.57 74.81 74.21 71.96 71.00 70.56 70.21 69.91 70.04 69.98 69.99 69.28 69.06 68.35 68.49 68.81 68.57 68.06 67.70 67.64 67.85 68.12
57.59 53.10 46.60 45.52 48.41 53.86 55.26 59.27 62.27 62.04 61.41 61.48 60.16 62.99 64.35 69.36 71.53 71.89 71.04 71.57 70.31 70.40 71.87 72.89 75.01 74.35 74.35 75.18 74.40 73.46 71.02 71.03 70.27 69.57 69.34 70.06 69.84 69.52 68.67 68.21 68.64 68.54 68.14 67.82 67.07 66.61 66.74 66.89 67.24
51.64 51.01 43.37 42.00 48.53 55.81 55.67 61.14 62.02 61.60 60.38 59.49 57.76 58.94 64.24 70.01 70.02 70.34 70.80 70.72 71.02 70.96 71.67 71.97 74.00 74.21 75.16 75.66 74.31 72.91 71.71 70.98 69.92 69.47 69.22 69.84 68.91 68.85 67.94 68.30 67.83 67.54 66.79 66.16 65.94 66.69 67.42 67.51 67.73
48.63 45.97 43.59 45.81 47.40 54.13 56.26 59.53 60.49 62.58 60.78 59.29 61.68 57.39 65.04 67.72 70.19 70.58 71.01 71.24 71.04 71.26 70.82 71.03 70.87 72.02 75.38 74.60 73.83 72.74 71.79 71.10 70.43 70.51 70.12 69.97 68.81 68.54 67.72 67.97 67.53 66.61 66.19 65.28 65.49 66.29 67.27 68.33 69.06
50.06 46.79 43.65 44.53 46.26 51.23 58.11 59.80 62.91 62.48 61.24 62.98 63.75 58.63 59.18 67.28 70.01 70.28 71.38 70.47 70.36 70.34 70.22 69.37 69.05 71.47 71.84 71.65 72.56 71.84 70.99 70.29 69.89 69.35 69.74 70.39 69.17 68.19 68.15 68.58 67.23 65.71 65.20 64.87 65.11 66.05 67.85 69.29 70.25
50.81 42.71 40.98 44.65 48.67 51.54 54.95 55.49 61.15 63.96 60.99 63.73 64.74 64.24 65.24 69.99 69.49 68.13 68.86 68.53 69.27 69.87 69.24 68.37 68.79 71.20 70.79 69.90 70.66 71.20 70.84 70.36 69.42 69.07 69.99 69.66 64.60 65.13 64.46 66.79 66.81 65.63 65.30 65.43 66.43 67.82 68.56 68.76 68.56
45.73 41.09 43.63 48.63 52.05 50.21 51.08 51.58 54.84 60.90 59.02 58.82 62.16 67.92 68.11 69.43 67.76 65.35 64.56 66.54 67.55 67.95 68.38 68.33 67.93 70.46 70.22 70.76 68.75 67.13 67.60 66.97 64.80 64.40 66.00 65.52 64.18 63.30 63.26 66.05 67.16 66.58 65.89 66.51 67.80 69.40 68.51 68.00 62.36
46.40 42.97 47.53 48.88 53.57 53.84 52.51 52.04 54.12 58.25 58.37 57.29 62.34 66.42 66.19 68.06 66.64 65.19 64.60 64.20 66.87 68.02 68.62 68.03 67.70 69.36 69.92 68.89 67.54 66.63 66.29 65.91 65.51 64.56 64.47 64.53 61.98 61.85 61.52 62.13 62.52 61.82 65.73 61.97 63.54 59.66 59.43 58.65 57.96
44.19 48.42 48.01 48.35 49.94 53.11 51.67 53.68 53.31 53.44 60.55 60.44 62.95 66.55 65.68 67.18 65.16 63.92 63.39 63.43 63.94 67.42 67.69 67.62 67.59 69.00 69.11 67.95 68.04 66.94 66.36 67.10 65.28 64.97 63.41 61.53 62.40 62.00 61.50 61.41 61.75 61.39 61.83 60.21 58.72 58.24 58.05 57.82 58.58
45.53 47.58 48.53 48.20 48.56 49.02 51.98 51.04 51.40 55.48 61.83 62.72 61.67 63.54 64.29 66.83 64.66 63.94 64.67 64.43 64.75 65.90 66.10 66.73 67.23 69.16 68.46 67.27 67.16 66.74 65.79 66.14 65.32 64.44 64.11 63.85 62.28 61.62 59.92 59.41 59.49 59.26 59.69 59.46 58.38 57.77 58.51 56.81 57.67
47.84 47.59 47.80 47.96 46.98 49.99 48.04 50.66 51.31 55.58 64.18 62.72 61.27 62.15 63.31 62.31 64.21 63.35 63.99 63.36 64.19 66.23 66.05 67.40 67.84 69.77 68.43 67.88 67.21 66.79 66.09 66.14 65.60 63.89 63.30 63.88 64.06 61.81 60.45 59.91 59.81 58.68 58.77 58.60 59.15 59.18 58.75 56.78 57.15
48.60 43.86 46.86 46.96 47.03 46.54 49.66 48.17 49.07 52.98 62.65 61.89 63.77 62.47 61.74 62.48 59.48 62.57 63.88 64.04 64.05 66.98 67.16 67.07 68.31 70.01 68.90 68.35 66.67 66.32 66.19 65.99 64.36 63.76 63.83 63.83 63.34 60.98 59.47 59.49 59.08 58.72 57.11 56.75 58.19 58.21 58.60 56.93 57.20
45.99 43.95 39.40 46.09 48.63 48.98 48.81 43.08 49.32 53.57 55.45 59.33 58.91 60.53 58.44 58.60 59.99 61.11 65.84 64.80 64.97 67.30 67.57 67.79 70.47 69.79 69.33 67.98 67.72 66.34 66.60 65.05 64.86 62.82 62.86 63.92 62.97 61.69 60.20 58.87 57.30 56.25 57.21 58.49 59.09 57.46 58.93 57.66 57.01
43.08 38.92 40.59 44.45 50.04 48.89 46.04 44.92 55.86 57.50 56.64 58.14 58.61 59.35 57.00 61.57 64.13 61.52 67.27 66.48 66.22 67.59 67.80 66.64 68.58 69.31 69.16 67.89 66.13 65.83 65.23 64.90 64.78 63.54 62.85 62.81 62.82 61.53 58.89 58.27 57.38 56.27 56.00 56.55 57.58 56.56 55.87 56.69 55.43
41.76 40.93 43.31 45.79 47.59 52.32 51.78 51.27 56.28 56.13 56.80 57.03 59.04 61.87 62.05 63.54 62.22 65.87 68.31 67.49 67.69 68.27 68.00 67.27 68.57 69.21 68.62 67.38 65.94 65.00 64.45 64.28 64.94 64.34 63.81 62.25 60.91 60.64 59.04 58.92 58.19 57.41 55.85 57.01 56.08 55.31 55.03 54.60 54.33
46.34 44.99 45.81 47.66 49.96 51.06 50.58 52.25 52.31 55.00 55.00 56.63 57.50 58.30 62.05 65.65 68.50 67.19 68.84 69.13 68.12 69.15 67.98 67.64 68.35 68.65 67.97 66.03 63.44 62.97 62.02 63.90 63.98 63.19 62.25 60.82 60.28 59.85 58.66 59.68 58.79 57.27 58.42 56.99 56.67 55.33 54.09 52.47 54.08
47.41 45.52 44.92 47.83 50.46 49.47 51.74 51.47 53.80 53.51 53.53 55.57 58.61 58.96 58.34 65.81 66.73 68.37 68.05 68.33 68.54 67.76 68.42 68.71 69.18 68.31 67.75 66.40 64.55 63.89 63.14 63.73 64.04 63.49 61.23 59.79 59.67 60.18 60.95 59.30 57.65 55.87 56.27 56.42 56.50 56.04 55.21 56.26 54.29
46.39 44.63 45.65 46.65 50.99 50.12 52.35 48.56 50.44 53.78 55.83 58.16 60.22 61.08 59.36 64.01 64.70 65.79 68.12 69.22 69.38 68.28 67.58 69.60 68.46 68.74 67.87 66.22 63.91 62.68 61.49 60.68 61.24 61.93 60.69 58.32 59.79 60.35 59.52 59.55 56.69 54.68 54.77 53.77 56.45 56.10 55.12 53.08 53.22
44.51 50.19 49.41 47.61 44.43 39.52 50.03 39.84 47.22 51.49 54.48 55.41 57.00 57.71 56.82 63.60 64.91 66.99 67.50 67.21 68.11 67.37 69.03 69.70 68.47 68.13 68.02 65.55 63.73 62.68 61.34 57.84 58.52 59.52 61.66 58.91 60.13 60.11 59.86 59.63 56.20 54.60 55.24 55.85 55.10 55.48 53.82 53.56 49.83
49.44 51.29 48.57 48.49 44.57 41.77 44.36 43.81 45.92 49.90 49.80 52.14 53.76 55.29 59.35 63.30 65.02 65.83 67.07 67.79 68.13 68.29 67.82 67.57 68.13 67.55 67.82 66.18 65.56 64.09 61.40 61.22 59.30 58.14 59.53 57.99 59.04 58.19 59.85 58.58 56.30 55.52 53.70 54.28 53.51 52.93 52.04 53.65 53.51
52.33 48.71 48.33 46.64 43.74 38.31 45.48 45.80 43.85 47.07 49.51 52.43 55.45 59.19 62.01 62.57 63.61 64.36 66.43 67.51 67.43 68.05 67.71 67.37 66.99 66.74 66.92 65.76 65.34 63.92 62.34 60.81 58.99 56.77 57.54 57.57 56.37 57.67 57.70 58.24 57.23 54.33 54.21 53.45 53.66 53.63 52.84 54.52 53.78
49.62 44.20 37.80 38.22 41.34 40.70 48.53 46.58 44.53 51.99 54.21 56.85 57.40 59.03 60.80 62.38 62.22 63.28 63.68 64.19 64.92 65.20 65.74 66.10 65.85 66.00 66.49 65.71 65.11 64.07 64.49 61.27 59.66 59.08 58.71 58.09 56.55 56.47 56.67 56.64 55.76 55.31 55.09 54.71 54.86 53.38 54.78 52.78 52.13
47.19 44.58 38.55 34.42 38.34 40.71 47.71 43.15 45.21 54.60 55.91 57.10 57.99 57.74 60.09 61.04 62.85 62.55 63.44 64.98 65.62 65.63 65.62 66.03 65.87 65.91 66.76 66.45 66.29 65.98 64.41 63.42 61.92 59.60 59.92 57.98 58.14 57.87 57.05 57.70 56.71 57.13 56.22 56.75 56.10 54.85 54.76 53.92 52.56
46.09 42.03 46.68 42.50 42.13 38.93 44.27 48.50 52.83 54.56 54.03 56.23 56.10 57.05 57.37 59.26 60.54 63.23 63.75 65.23 65.74 65.66 65.77 65.29 65.80 65.45 66.54 66.14 65.13 64.97 65.23 63.45 62.70 60.35 60.28 61.68 60.29 59.45 58.67 57.86 58.32 58.48 57.32 55.47 55.68 54.68 54.53 54.19 53.01
45.31 47.94 40.95 40.16 35.06 34.96 41.26 44.65 46.24 48.12 50.73 52.62 55.00 56.08 56.85 58.62 59.81 59.97 62.53 64.95 65.95 66.82 67.40 66.61 66.94 66.26 66.50 66.29 66.24 65.62 64.14 65.85 63.09 63.34 62.19 63.03 62.06 60.05 59.58 58.05 58.75 58.77 58.72 57.48 54.39 53.67 54.94 52.96 52.93
44.99 43.89 43.38 43.08 41.67 35.92 34.91 41.35 49.41 49.98 51.48 50.09 51.59 54.55 55.76 56.08 58.89 60.17 61.29 62.20 62.88 63.16 67.34 66.86 66.88 66.49 65.87 66.25 66.67 64.96 64.45 65.31 64.78 63.55 60.95 59.87 59.96 59.38 59.19 59.04 58.47 59.32 58.04 57.24 54.67 54.95 54.56 52.50 52.18
48.58 45.66 44.60 38.85 38.85 41.13 40.47 40.04 52.45 51.80 49.96 50.34 50.47 55.82 56.28 60.54 60.41 60.94 61.48 61.93 61.62 59.86 66.21 65.75 66.01 65.59 65.27 65.76 65.18 64.27 65.76 64.83 63.79 61.91 60.73 58.82 58.74 59.15 58.85 59.08 58.38 58.72 58.70 57.01 57.10 55.44 56.42 53.06 52.82
MSLP
1009.86 1009.86 1010.46 1010.27 1011.25 1011.68 1010.53 1008.78 1007.72 1005.12 1004.95 1004.42 1004.83 1005.71 1006.94 1007.42 1008.06 1010.29 1010.38 1011.25 1012.27 1013.22 1013.92 1014.12 1014.50 1014.91 1015.24 1015.60 1015.59 1015.69 1015.99 1016.22 1016.31 1016.62 1016.72 1016.85 1016.90 1016.93 1016.90 1017.00 1016.89 1016.83 1016.90 1016.89 1017.01 1016.90 1016.74 1016.67 1016.51
1009.34 1009.51 1010.14 1010.03 1010.32 1010.51 1008.59 1007.63 1006.20 1005.08 1004.94 1004.99 1005.81 1006.43 1007.30 1008.46 1008.70 1010.44 1011.26 1012.07 1012.39 1013.13 1013.98 1014.25 1014.70 1015.13 1015.41 1015.78 1015.88 1015.96 1016.17 1016.47 1016.75 1016.88 1017.02 1017.06 1017.08 1017.10 1017.10 1017.08 1017.07 1017.18 1017.15 1017.07 1017.08 1017.07 1016.88 1016.75 1016.55
1009.31 1009.34 1009.81 1009.40 1008.98 1008.46 1006.98 1005.64 1005.07 1004.89 1005.01 1005.62 1006.73 1006.71 1007.35 1008.56 1009.46 1009.96 1011.22 1012.17 1012.71 1013.57 1014.13 1014.53 1014.95 1015.21 1015.60 1015.93 1016.10 1016.22 1016.49 1016.83 1017.10 1017.18 1017.24 1017.29 1017.34 1017.32 1017.41 1017.44 1017.36 1017.36 1017.40 1017.38 1017.35 1017.11 1016.98 1016.83 1016.62
1009.00 1009.10 1009.01 1008.33 1008.15 1006.51 1005.58 1004.40 1004.31 1005.23 1006.83 1008.72 1010.52 1009.04 1008.61 1008.20 1009.03 1010.04 1011.23 1011.92 1012.71 1013.71 1014.30 1014.57 1015.15 1015.56 1015.81 1016.09 1016.19 1016.46 1016.83 1017.05 1017.26 1017.28 1017.34 1017.42 1017.49 1017.53 1017.67 1017.68 1017.61 1017.56 1017.56 1017.53 1017.49 1017.22 1017.11 1016.90 1016.75
1008.86 1008.85 1008.67 1007.75 1006.30 1005.00 1004.15 1003.70 1004.90 1006.68 1009.63 1009.72 1012.65 1011.03 1010.16 1008.88 1009.38 1010.43 1011.39 1012.20 1012.80 1013.60 1014.25 1014.85 1015.21 1015.48 1015.76 1015.99 1016.30 1016.70 1016.96 1017.13 1017.28 1017.34 1017.47 1017.51 1017.69 1017.77 1017.73 1017.83 1017.75 1017.75 1017.75 1017.66 1017.49 1017.30 1017.22 1017.00 1016.87
1009.05 1008.55 1008.62 1007.63 1005.74 1003.89 1003.52 1004.33 1005.17 1006.73 1009.38 1010.69 1011.24 1011.16 1010.69 1009.35 1009.62 1010.57 1010.81 1011.80 1012.62 1013.47 1014.11 1014.65 1015.36 1015.61 1015.83 1016.13 1016.55 1016.81 1017.03 1017.28 1017.40 1017.51 1017.59 1017.62 1017.78 1017.85 1017.89 1017.97 1017.95 1017.89 1017.86 1017.76 1017.52 1017.38 1017.19 1017.14 1016.90
1008.87 1009.10 1008.26 1007.05 1005.58 1003.89 1003.09 1003.40 1005.29 1006.58 1008.29 1010.03 1010.61 1011.53 1011.13 1010.07 1009.32 1009.95 1011.20 1011.96 1012.79 1013.34 1013.96 1014.64 1015.27 1015.69 1015.88 1016.29 1016.73 1016.94 1017.19 1017.23 1017.40 1017.47 1017.51 1017.77 1017.91 1017.96 1018.08 1018.16 1018.15 1017.99 1017.96 1017.94 1017.67 1017.47 1017.24 1016.98 1016.86
1007.65 1008.41 1007.68 1006.30 1005.15 1003.41 1002.62 1003.03 1004.65 1006.10 1008.91 1010.30 1011.04 1010.76 1010.37 1009.75 1009.13 1009.86 1011.37 1012.07 1012.80 1013.46 1013.79 1014.33 1015.09 1015.67 1016.15 1016.36 1016.58 1016.87 1017.10 1017.17 1017.19 1017.31 1017.44 1017.73 1017.95 1018.00 1018.03 1018.23 1018.21 1018.12 1018.05 1018.03 1018.05 1017.81 1017.37 1016.94 1016.74
1006.91 1007.95 1007.54 1006.28 1004.30 1003.40 1002.46 1003.03 1004.01 1006.45 1009.51 1010.93 1012.09 1012.37 1012.02 1009.96 1009.24 1009.94 1011.54 1012.30 1012.83 1013.40 1013.77 1014.02 1014.85 1015.31 1015.80 1016.10 1016.34 1016.68 1016.80 1016.74 1016.73 1016.93 1017.17 1017.41 1017.75 1017.81 1017.87 1017.97 1018.08 1018.06 1018.07 1018.05 1018.15 1018.02 1017.74 1017.30 1016.90
1007.07 1007.51 1006.92 1005.90 1004.48 1003.67 1002.98 1002.85 1003.75 1006.81 1009.23 1010.77 1009.87 1010.32 1011.60 1010.15 1009.63 1009.93 1010.65 1011.82 1012.32 1012.91 1013.51 1013.70 1014.18 1014.58 1015.14 1015.27 1015.88 1016.31 1016.49 1016.58 1016.67 1016.85 1017.11 1017.33 1017.50 1017.68 1017.85 1018.02 1018.08 1018.04 1017.99 1018.05 1018.00 1017.90 1017.76 1017.53 1017.64
1006.50 1006.73 1005.70 1005.00 1003.98 1003.16 1003.04 1002.97 1003.30 1005.77 1008.95 1009.39 1009.10 1009.15 1009.45 1009.32 1009.29 1009.67 1009.91 1010.41 1011.24 1011.97 1012.64 1013.23 1013.40 1013.63 1014.45 1014.92 1015.78 1016.24 1016.60 1016.87 1016.92 1016.96 1017.30 1017.38 1017.63 1017.80 1017.89 1018.01 1018.18 1018.40 1018.01 1018.23 1018.23 1018.02 1018.11 1018.07 1018.08
1005.91 1005.39 1004.97 1004.15 1003.72 1003.54 1003.42 1003.35 1003.64 1004.48 1006.34 1007.59 1007.30 1007.16 1008.39 1009.21 1009.54 1009.59 1009.90 1010.10 1010.35 1011.17 1011.95 1012.64 1012.98 1013.27 1014.03 1014.83 1015.38 1015.71 1016.39 1016.68 1016.98 1016.90 1017.03 1017.32 1017.59 1017.77 1017.99 1018.32 1018.21 1018.24 1018.10 1018.35 1018.29 1018.24 1018.23 1018.20 1018.20
1005.45 1005.00 1004.47 1003.72 1003.75 1003.87 1003.42 1003.66 1003.93 1005.24 1006.10 1007.12 1007.36 1007.75 1008.32 1009.13 1009.46 1009.46 1009.65 1009.86 1010.37 1011.08 1011.67 1012.33 1012.91 1013.41 1014.07 1014.71 1015.24 1015.43 1015.94 1016.30 1016.51 1016.96 1017.18 1017.49 1017.78 1017.91 1017.83 1017.82 1017.96 1018.09 1018.09 1018.18 1018.35 1018.27 1018.60 1018.54 1018.56
1004.96 1004.90 1004.70 1004.14 1004.06 1003.88 1004.08 1004.04 1004.16 1004.90 1005.99 1006.69 1007.46 1009.89 1012.03 1011.43 1011.00 1009.72 1009.91 1009.85 1010.15 1011.04 1011.81 1012.32 1013.13 1013.79 1014.15 1015.02 1014.97 1015.59 1015.90 1016.47 1016.86 1017.08 1017.24 1017.53 1017.79 1017.88 1017.99 1018.04 1017.97 1018.17 1018.13 1018.30 1018.20 1018.43 1018.61 1018.85 1018.82
1004.93 1005.29 1004.91 1004.56 1004.08 1004.05 1003.93 1004.54 1004.53 1004.55 1005.94 1007.08 1008.59 1010.17 1011.58 1013.48 1013.38 1012.88 1010.45 1010.20 1010.16 1011.15 1011.84 1012.69 1013.32 1014.08 1014.71 1015.11 1015.21 1015.61 1016.01 1016.67 1017.18 1017.44 1017.50 1017.82 1017.93 1018.01 1018.16 1018.25 1018.35 1018.43 1018.12 1018.18 1018.23 1018.29 1018.52 1019.10 1018.94
1005.55 1005.50 1005.50 1004.60 1004.19 1004.22 1004.39 1005.14 1005.30 1004.86 1005.90 1007.50 1008.80 1009.82 1011.59 1011.74 1013.02 1012.29 1010.32 1010.14 1010.16 1011.10 1011.96 1012.73 1013.45 1014.31 1015.02 1015.33 1015.42 1015.96 1016.58 1017.03 1017.38 1017.63 1017.91 1017.94 1018.07 1018.14 1018.29 1018.55 1018.70 1018.58 1018.59 1018.58 1018.47 1018.68 1019.03 1019.26 1019.29
1006.02 1005.69 1005.48 1004.83 1004.04 1004.64 1005.06 1006.28 1006.04 1005.37 1005.97 1007.72 1008.01 1008.88 1011.12 1010.53 1011.67 1012.30 1010.28 1009.98 1010.39 1011.06 1011.85 1012.69 1013.36 1014.17 1014.93 1015.68 1016.20 1016.67 1017.02 1017.40 1017.79 1018.06 1018.29 1018.24 1018.30 1018.29 1018.52 1018.67 1018.64 1018.67 1018.82 1018.79 1018.74 1018.94 1019.08 1019.34 1019.67
1005.64 1005.03 1004.52 1004.67 1004.62 1005.26 1006.82 1007.68 1007.69 1008.97 1008.27 1009.84 1010.44 1009.77 1008.95 1009.86 1011.30 1011.44 1009.53 1009.83 1010.49 1011.02 1011.78 1012.57 1013.37 1014.24 1015.15 1015.89 1016.56 1017.10 1017.53 1017.74 1017.99 1018.25 1018.39 1018.41 1018.55 1018.49 1018.63 1018.60 1018.65 1018.78 1019.08 1018.92 1018.75 1019.05 1019.28 1019.50 1019.69
1004.56 1004.24 1004.48 1004.47 1004.54 1005.72 1007.68 1010.27 1010.84 1009.58 1009.01 1009.45 1009.71 1010.02 1009.80 1008.52 1008.49 1010.00 1009.63 1010.08 1010.78 1011.45 1011.99 1012.77 1013.85 1014.70 1015.20 1016.14 1017.18 1017.74 1018.14 1018.26 1018.55 1018.64 1018.94 1018.96 1018.83 1018.67 1018.88 1019.03 1019.05 1019.09 1019.33 1019.22 1018.98 1019.17 1019.58 1019.78 1019.67
1004.16 1003.86 1004.28 1004.32 1004.62 1006.05 1008.24 1010.04 1009.98 1011.46 1010.90 1010.42 1010.70 1010.35 1010.44 1009.55 1009.00 1008.95 1009.64 1009.94 1010.41 1011.55 1012.61 1013.84 1014.36 1015.01 1015.20 1015.87 1016.93 1017.65 1018.13 1018.36 1018.63 1018.57 1018.90 1019.18 1019.14 1018.89 1019.11 1019.55 1019.36 1019.25 1019.49 1019.35 1019.21 1019.38 1019.98 1020.05 1019.83
1004.07 1004.11 1004.35 1004.60 1005.14 1006.28 1008.71 1011.47 1012.56 1012.08 1011.37 1010.04 1010.94 1010.58 1011.27 1010.79 1010.39 1010.44 1010.68 1010.65 1011.10 1011.67 1013.08 1013.87 1014.72 1014.56 1015.56 1015.99 1016.90 1017.70 1018.30 1018.71 1018.84 1018.92 1019.20 1019.43 1019.30 1019.08 1019.37 1019.94 1019.91 1019.50 1019.60 1019.53 1019.48 1019.57 1020.00 1020.41 1020.07
1004.27 1004.00 1004.31 1004.98 1005.94 1007.26 1008.19 1012.42 1013.30 1013.08 1012.10 1011.31 1011.39 1011.85 1011.92 1011.30 1011.70 1011.59 1011.67 1011.80 1011.92 1012.95 1013.40 1014.69 1015.02 1015.25 1015.69 1016.06 1016.79 1017.51 1018.06 1018.58 1018.76 1018.75 1019.02 1019.37 1019.32 1019.30 1019.55 1019.82 1019.77 1019.72 1019.54 1019.68 1019.56 1019.60 1019.90 1020.18 1020.64
1004.39 1004.35 1005.04 1005.58 1006.60 1007.61 1008.40 1011.33 1012.97 1013.46 1012.74 1012.38 1011.87 1012.08 1012.36 1011.76 1012.30 1012.44 1012.39 1012.60 1012.96 1013.34 1013.86 1014.44 1014.73 1015.24 1015.58 1016.02 1016.24 1017.01 1017.50 1017.77 1018.16 1018.71 1018.98 1019.27 1019.35 1019.42 1019.38 1019.63 1019.43 1019.47 1019.42 1019.63 1019.51 1019.68 1020.02 1020.18 1020.46
1003.98 1004.69 1005.60 1006.22 1007.39 1008.98 1009.03 1010.72 1012.79 1012.69 1011.65 1011.78 1011.87 1011.81 1011.56 1011.89 1012.57 1012.87 1012.66 1012.81 1013.21 1013.55 1013.94 1014.40 1014.78 1014.99 1015.22 1015.63 1016.09 1016.61 1017.18 1017.80 1018.22 1018.69 1018.95 1019.24 1019.43 1019.50 1019.54 1019.54 1019.60 1019.45 1019.51 1019.71 1019.65 1019.79 1019.97 1020.13 1020.30
1004.40 1005.47 1006.80 1007.87 1008.98 1009.67 1008.44 1009.67 1010.48 1010.26 1010.12 1010.12 1010.49 1011.03 1011.33 1011.61 1012.55 1012.77 1012.86 1012.92 1013.20 1013.54 1013.83 1014.22 1014.62 1015.00 1015.26 1015.60 1015.97 1016.31 1016.50 1017.22 1017.66 1018.07 1018.40 1018.90 1019.17 1019.22 1019.08 1019.16 1019.35 1019.30 1019.46 1019.51 1019.54 1019.82 1020.05 1020.25 1020.45
1005.00 1005.86 1007.12 1008.49 1009.66 1009.39 1008.74 1009.89 1009.26 1008.98 1009.33 1009.79 1009.63 1009.95 1010.49 1011.17 1011.62 1012.04 1012.29 1012.61 1013.16 1013.52 1013.76 1014.05 1014.33 1014.57 1014.82 1015.14 1015.49 1015.79 1016.09 1016.65 1017.14 1017.50 1017.86 1018.11 1018.43 1018.51 1018.45 1018.55 1018.67 1018.92 1019.14 1019.23 1019.43 1019.72 1019.95 1020.12 1020.28
1005.31 1006.36 1006.78 1008.12 1008.60 1009.19 1009.84 1009.39 1008.83 1008.53 1008.70 1008.83 1009.03 1009.29 1009.86 1010.39 1010.70 1011.10 1011.35 1011.81 1012.43 1012.91 1013.13 1013.36 1013.75 1014.08 1014.47 1014.67 1015.05 1015.50 1015.84 1016.17 1016.55 1016.93 1017.25 1017.44 1017.61 1017.74 1017.81 1018.08 1018.44 1018.68 1018.98 1019.28 1019.45 1019.80 1020.07 1020.02 1020.17
1005.38 1006.19 1007.21 1008.80 1010.12 1010.61 1010.29 1009.61 1008.91 1008.63 1008.35 1008.07 1008.27 1008.77 1009.20 1009.62 1010.12 1010.38 1010.67 1011.17 1011.44 1011.72 1012.18 1012.64 1013.03 1013.46 1013.82 1014.17 1014.58 1014.94 1015.22 1015.60 1016.06 1016.45 1016.88 1016.97 1017.00 1017.18 1017.46 1017.87 1018.20 1018.39 1018.66 1018.87 1019.42 1019.69 1019.68 1020.00 1019.98
1005.70 1006.46 1007.72 1009.02 1010.04 1010.74 1010.42 1009.08 1007.56 1007.59 1007.28 1007.11 1007.41 1007.93 1008.31 1008.96 1009.46 1009.75 1010.05 1010.36 1010.53 1010.51 1011.42 1012.09 1012.71 1013.11 1013.43 1013.80 1014.14 1014.50 1014.88 1015.31 1015.69 1016.10 1016.46 1016.75 1016.86 1016.95 1017.20 1017.52 1017.82 1018.10 1018.39 1018.75 1019.11 1019.37 1019.71 1019.66 1019.92
1005.73 1006.65 1007.98 1009.90 1010.92 1011.01 1010.67 1009.22 1007.52 1007.05 1006.64 1006.38 1006.63 1007.13 1007.86 1008.42 1008.99 1009.24 1009.51 1009.86 1010.30 1010.72 1011.06 1011.94 1012.40 1012.55 1013.03 1013.44 1013.88 1014.28 1014.64 1015.03 1015.55 1015.94 1016.23 1016.51 1016.75 1016.87 1017.01 1017.19 1017.49 1017.82 1018.08 1018.38 1018.63 1019.08 1019.16 1019.63 1019.74
Wind_Speed
4 7 3 2 4 4 5 7 10 12 8 3 18 15 12 10 1 4 8 20 20 16 12 14 16 15 15 13 13 13 12 15 15 13 13 13 13 14 14 13 13 13 13 12 11 10 9 8 9
3 4 3 4 3 3 6 8 4 8 9 6 19 19 16 14 12 17 12 18 18 16 10 12 16 15 15 14 13 12 14 16 13 13 13 13 13 13 13 13 13 13 12 12 12 12 11 10 9
2 5 2 5 4 7 5 8 10 8 5 12 7 13 7 12 19 5 21 20 18 13 10 12 15 15 15 14 13 16 16 14 13 13 13 13 12 13 13 13 13 12 12 12 12 12 11 10 10
3 2 4 2 9 11 6 6 10 8 18 24 25 9 10 17 8 14 22 21 18 14 11 15 15 13 14 15 13 16 15 14 13 13 12 12 12 13 12 12 12 11 11 11 11 10 10 9 10
2 2 3 4 11 8 6 6 18 18 19 39 22 14 10 15 21 24 23 20 19 15 12 11 15 14 15 15 16 15 15 13 13 12 11 12 11 11 12 11 11 11 10 10 10 10 10 10 10
4 2 4 5 12 3 4 20 20 12 25 20 9 2 3 9 15 18 20 20 19 17 13 12 14 13 12 15 15 15 13 12 11 11 10 11 10 11 11 10 9 9 9 9 9 10 11 11 11
6 2 8 13 15 4 6 12 14 8 17 10 20 7 5 5 8 15 20 21 19 18 14 11 8 10 13 16 15 14 13 12 10 9 8 9 10 11 10 9 7 6 7 6 7 10 12 13 13
4 3 10 8 6 4 4 4 18 22 5 15 3 1 6 7 12 10 21 21 20 17 15 13 9 7 8 8 16 15 14 12 10 9 9 8 9 10 11 7 4 2 3 4 5 9 13 14 15
4 3 6 9 8 1 4 5 5 19 27 12 7 11 16 9 10 8 21 18 16 15 16 15 13 11 11 9 11 14 15 14 12 11 11 9 5 6 8 7 5 2 3 4 6 9 10 12 15
4 1 8 11 6 6 6 6 7 19 27 27 22 10 12 12 9 9 14 20 18 19 18 16 16 15 14 11 11 9 9 5 5 5 6 5 6 6 7 7 7 6 4 6 7 10 11 8 4
7 7 10 12 7 8 9 9 2 19 15 22 26 21 15 16 13 12 10 11 18 20 15 17 18 17 15 11 7 5 3 3 3 5 6 5 4 4 4 3 2 2 6 1 4 3 4 7 4
5 9 7 6 8 7 5 9 9 6 11 27 22 23 16 17 11 9 10 9 10 21 19 17 14 15 13 8 7 7 5 4 3 4 5 3 2 3 3 2 4 4 3 3 3 3 4 7 8
6 6 9 4 9 7 10 8 6 7 21 21 18 16 15 13 8 8 9 10 9 16 13 9 9 14 9 8 4 6 5 5 5 4 5 4 3 3 2 2 1 2 3 4 2 3 3 4 7
3 4 8 6 7 3 6 7 4 4 20 18 20 12 23 31 12 6 8 9 9 12 9 8 9 10 7 6 8 5 5 5 5 4 4 5 3 3 1 1 1 3 4 3 4 2 3 3 5
6 3 9 7 7 2 2 5 8 6 21 16 17 20 17 18 28 20 9 10 11 12 9 9 9 8 8 8 7 5 5 6 5 4 6 4 2 2 2 1 4 2 3 3 3 3 4 3 3
5 4 3 11 7 4 8 9 10 9 13 12 17 18 25 23 21 25 9 10 10 14 14 9 9 8 8 7 5 5 5 5 4 4 3 3 2 3 4 3 3 2 3 2 1 1 3 2 3
5 7 6 4 6 8 5 4 10 10 9 9 6 9 22 22 26 21 9 9 13 14 14 10 12 10 9 9 7 7 7 5 4 3 1 2 2 3 5 3 3 3 3 3 1 2 2 3 3
8 6 7 9 4 11 16 6 16 20 24 19 17 11 9 23 26 22 9 9 12 12 11 9 11 10 11 9 7 5 5 4 4 2 1 2 1 4 5 2 3 3 3 3 3 4 3 2 2
6 6 9 5 7 10 12 12 10 12 19 18 17 18 21 9 9 17 9 14 12 12 12 9 11 10 9 5 5 4 3 3 1 3 6 6 4 5 6 4 4 2 3 1 4 3 4 3 2
9 6 2 5 8 7 12 10 12 14 4 4 10 16 20 8 7 8 8 12 16 14 9 10 15 11 7 5 4 4 3 1 2 3 5 4 3 5 6 4 2 2 2 2 3 4 2 2 2
7 2 5 4 5 6 14 6 7 7 9 8 6 11 13 9 7 10 11 9 11 12 7 12 6 11 7 9 8 5 4 3 1 1 2 0 1 5 5 5 5 2 2 1 1 3 3 0 2
4 6 7 6 3 4 8 3 4 6 7 7 4 2 9 8 8 8 8 10 7 9 9 16 9 9 9 11 8 5 4 4 4 4 3 3 2 3 2 4 5 2 2 3 1 2 2 3 2
1 8 6 5 5 3 6 7 6 5 5 5 11 10 9 10 7 7 7 9 8 8 8 6 7 7 7 9 9 6 5 2 3 2 4 3 3 3 4 5 4 3 3 2 4 4 3 3 3
4 4 7 5 1 3 8 6 5 6 8 7 10 11 9 9 8 5 6 7 7 7 7 7 7 6 7 6 6 7 6 6 5 4 4 3 3 3 5 5 4 3 2 2 2 2 3 3 2
4 1 4 7 5 8 10 5 10 16 6 9 17 13 10 11 8 6 6 7 7 7 7 6 7 6 7 7 6 6 4 7 7 6 5 4 3 4 6 5 5 3 2 2 2 3 2 2 2
5 4 5 3 3 7 8 5 3 13 9 8 14 14 15 13 13 10 9 8 8 7 8 8 8 7 8 8 9 7 7 4 4 6 4 5 5 5 7 6 6 5 5 3 4 2 2 3 2
6 4 6 1 5 3 2 7 6 2 7 15 15 14 14 13 12 14 11 11 10 9 9 10 9 6 8 8 6 6 6 6 5 7 6 5 5 5 6 7 6 6 5 5 3 2 1 3 3
4 4 6 5 4 5 1 6 7 6 8 10 14 16 14 13 11 8 9 11 10 12 12 9 9 9 8 8 7 6 7 6 6 6 7 7 5 6 5 6 6 6 5 6 6 3 3 4 3
1 3 4 3 4 3 4 4 8 13 13 10 9 10 12 10 10 8 8 8 8 9 12 8 8 8 7 7 7 7 6 6 5 4 3 4 4 5 5 7 8 6 6 6 6 5 5 7 4
4 2 5 6 6 1 4 7 5 6 4 3 6 13 7 14 10 11 11 10 6 3 13 8 8 8 7 6 6 5 6 6 5 5 5 4 5 4 5 6 7 6 6 7 7 7 6 6 7
Wind_Direction
166 192 179 320 72 77 229 265 254 105 67 7 74 79 78 42 76 177 134 118 123 124 133 125 123 124 119 114 107 103 100 91 84 81 77 75 70 67 63 55 50 50 45 41 35 35 36 26 20
266 247 192 281 136 214 265 208 90 76 130 106 94 99 76 75 79 112 99 122 121 129 131 123 127 127 121 117 113 110 104 87 87 85 82 78 73 66 62 58 55 45 39 37 36 34 35 30 23
258 221 103 168 211 221 219 173 126 128 89 76 59 52 79 117 122 106 127 127 128 123 124 129 126 124 124 124 122 104 93 98 97 93 86 81 76 70 62 55 48 43 40 38 34 30 26 20 9
274 356 302 137 240 256 221 123 149 88 64 43 1 36 73 126 94 132 132 137 124 119 126 127 127 128 129 126 119 107 110 107 105 98 93 86 83 76 61 53 47 49 45 37 25 19 9 0 357
267 279 256 273 269 214 161 147 78 97 100 71 327 43 63 83 120 129 135 131 125 124 125 125 133 137 136 134 122 118 116 114 112 106 99 94 87 79 66 55 56 53 43 32 15 6 1 353 353
317 116 355 290 292 139 86 100 90 92 117 106 102 91 299 121 123 147 142 133 130 131 133 138 141 142 140 127 126 124 125 124 118 114 110 109 102 88 73 70 61 54 38 26 9 358 359 348 346
206 17 253 271 286 74 85 97 105 101 112 117 149 135 321 261 169 153 127 128 133 133 137 134 136 145 143 130 130 132 133 132 137 134 129 129 115 102 98 81 68 46 31 20 3 342 344 340 343
196 178 285 281 292 162 133 92 126 118 64 126 87 88 198 225 183 145 138 139 138 142 140 141 145 144 126 142 137 143 147 148 153 151 152 145 132 127 118 104 92 34 355 356 345 338 335 330 332
272 332 295 285 307 199 121 104 91 81 118 72 65 15 308 216 175 143 141 143 145 150 151 148 152 160 158 149 154 156 159 167 171 163 170 163 159 164 148 148 155 212 306 329 327 317 305 306 324
147 10 264 270 327 21 11 67 118 112 103 99 122 131 299 194 185 154 156 154 160 157 154 159 167 170 160 163 162 170 179 177 180 177 179 178 185 171 153 157 184 199 244 293 327 328 13 351 333
236 219 260 288 330 37 354 0 110 121 133 147 152 169 200 185 191 167 160 161 165 160 157 171 175 169 166 154 169 166 168 180 206 198 175 183 161 142 136 171 186 248 246 308 305 24 20 23 46
240 268 285 301 349 1 334 317 335 350 136 173 165 175 175 181 186 165 167 158 147 152 163 175 177 160 154 158 175 162 167 174 163 127 134 117 97 114 131 174 232 212 232 193 138 74 7 51 42
203 264 301 358 338 329 339 324 327 98 147 172 165 179 172 165 171 154 152 147 136 141 150 150 135 140 153 157 159 146 149 134 130 112 89 85 107 90 101 128 46 94 102 62 70 119 75 75 68
326 355 314 342 287 254 263 287 348 96 153 166 161 85 57 2 329 168 145 151 128 129 135 122 102 115 118 114 108 105 102 92 97 106 95 80 113 109 99 320 22 77 82 87 82 49 80 135 111
278 301 285 275 250 245 145 326 294 263 163 157 137 128 116 93 290 294 172 158 138 132 122 116 106 99 96 107 104 106 103 98 96 96 81 90 102 82 73 346 59 61 76 87 58 10 13 96 115
273 287 275 269 213 177 99 268 294 311 98 121 119 117 129 141 232 247 196 148 135 135 137 129 120 107 99 101 81 83 84 90 95 90 87 114 118 65 38 69 57 42 48 342 58 188 4 54 133
266 236 205 230 183 145 128 334 345 44 25 143 167 150 154 163 207 244 196 149 139 142 139 134 135 130 117 84 77 72 79 78 67 93 141 161 135 96 74 93 60 31 9 320 122 30 96 63 40
265 192 192 150 177 76 87 29 22 26 48 41 16 328 192 171 204 211 139 123 125 134 131 125 136 128 102 100 96 82 76 74 56 12 316 111 102 100 65 72 48 27 0 10 76 82 45 103 55
316 351 93 116 79 89 70 100 9 14 34 25 10 4 355 115 141 156 139 124 128 126 134 141 117 111 119 113 96 83 93 69 41 40 55 34 50 66 59 36 343 17 34 51 81 81 47 351 39
317 333 27 129 115 98 105 62 49 9 2 68 15 3 352 346 67 77 128 136 143 146 134 111 126 126 124 113 116 114 122 95 297 136 81 41 62 67 53 12 300 56 19 26 67 78 39 344 354
297 284 25 82 147 111 101 22 1 309 324 42 28 1 338 306 62 43 48 47 148 138 103 103 129 134 122 111 107 88 79 40 33 129 111 246 174 106 111 288 312 48 81 351 116 100 94 13 328
31 23 27 334 17 239 155 211 317 292 320 40 262 281 297 29 51 61 54 52 66 100 119 139 164 148 132 127 121 140 155 174 205 183 159 171 228 115 176 299 275 320 75 49 66 108 130 84 347
83 23 334 317 310 339 292 89 283 297 322 257 249 244 239 81 52 73 82 86 81 85 94 115 106 113 136 150 148 156 183 196 120 107 154 170 213 204 240 275 252 202 111 161 108 89 87 105 95
5 353 323 288 299 9 277 137 250 211 197 203 231 224 125 105 82 84 114 117 120 123 124 134 141 157 155 151 158 165 165 161 154 173 161 187 211 235 252 265 269 186 122 160 112 139 137 116 59
235 9 325 338 46 230 286 24 214 212 212 166 151 141 143 128 146 159 150 131 128 134 142 145 155 164 163 169 182 176 206 165 174 173 170 174 202 216 221 216 209 175 198 197 141 143 82 118 85
310 163 149 286 181 249 246 187 283 193 202 181 138 147 148 159 168 168 171 159 157 162 166 166 177 179 176 181 179 184 183 172 179 179 184 186 197 206 204 204 192 190 194 182 160 157 157 164 119
312 21 241 359 274 57 60 43 20 169 170 152 161 162 166 169 166 174 177 169 171 177 187 182 185 185 180 185 173 180 181 190 185 183 196 202 197 203 196 187 180 189 185 192 172 156 217 154 140
212 244 18 1 17 352 311 160 199 215 217 172 179 174 181 175 175 174 162 184 181 184 193 186 172 174 180 184 180 189 182 184 189 179 193 212 200 178 167 180 183 188 189 168 179 189 192 164 197
309 8 11 123 120 147 343 270 193 196 214 186 200 180 175 158 153 147 148 161 181 187 180 170 164 166 169 172 180 183 187 181 172 170 182 198 198 187 177 188 193 189 186 175 171 184 194 199 205
79 66 108 106 311 142 157 278 53 116 82 81 97 156 138 146 158 178 176 185 194 124 139 156 163 176 160 155 159 185 165 144 153 172 186 205 235 219 208 183 186 190 193 183 174 193 213 199 206